Погода в Ильмене

Россия / Новгородская область     58°23′42″N   31°11′56″E
темп.,
°C
ветер,
м/с
пор.,
м/с
влажн.,
%
обл.,
%
осадки,
мм/ч
давл.,
гПа
погр.,
м
28 февраля, вс
вс2800:000сз3896100 0.1 1019390
03:00−2з2596100 0.1 1019120
06:00−2зюз3796100 0.0 1016306
09:00−1юз3697100 2.0 1015354
12:00+1зюз1199100 1.0 101480
15:00+2сз25100100 1.3 1016218
18:00+2ссз2699100 0.0 1018185
21:00+1сз2698100 0.1 1020214
1 марта, пн
пн100:000зсз239691 0.0 102257
03:00−2зсз369649 0.0 1023131
06:00−2зюз359627 0.0 1022120
09:000з499749 0.0 1021478
12:00+2з5994100 0.0 1020526
15:00+3з41190100 0.0 1020645
18:00+2зюз51389100 0.0 1017611
21:00+2з51586100 0.0 1015664
2 марта, вт
вт200:00+1зсз41291100 0.0 1014681
03:00+1зсз41291100 0.0 1015471
06:000з4119274 0.0 1014432
09:00+1зсз5129087 0.0 1013671
12:00+2зсз51081100 0.0 1013740
15:00+4сз5107752 0.0 1014891
18:00+1сз513790 0.0 1015776
21:00+1сз5128125 0.0 1017909
3 марта, ср
ср300:000сз5128096 0.0 1019825
03:00−2сз4118461 0.0 1021549
06:00−3зсз38870 0.0 1022246
09:00−2з410869 0.0 1022357
12:00+1з59793 0.0 1021560
15:00+2з59762 0.0 1019734
18:00+1зюз5128162 0.0 1016601
21:00+1зюз5148979 0.0 1013621
4 марта, чт
чт400:00+1зюз5158698 0.0 1009927
03:00+1зюз6138099 0.0 1006847
06:00+1з61392100 0.0 1003838
09:000зсз51177100 0.2 10031093
12:00−1сз5965100 0.0 10031096
15:00−1сз5871100 0.0 10041108
18:00−2ссз477197 0.1 10051016
21:00−4ссз476664 0.1 1006812